Time,TemperatureF,DewpointF,PressureIn,WindDirection,WindDirectionDegrees,WindSpeedMPH,WindSpeedGustMPH,Humidity,HourlyPrecipIn,Conditions,Clouds,dailyrainin,SolarRadiationWatts/m^2,SoftwareType,DateUTC
2013-03-25 00:03:00,26.0,25.0,-100.00,North,0,10.0,23.0,96,0.00,,,0.00,0.000000,,2013-03-25 04:03:00,
2013-03-25 00:33:00,26.0,25.0,-100.00,North,0,12.0,29.0,96,0.00,,,0.00,0.000000,,2013-03-25 04:33:00,
2013-03-25 00:43:00,26.0,25.0,-100.00,North,0,12.0,29.0,96,0.00,,,0.00,0.000000,,2013-03-25 04:43:00,
2013-03-25 00:52:00,26.0,25.0,-100.00,North,0,12.0,29.0,96,0.00,,,0.00,0.000000,,2013-03-25 04:52:00,
2013-03-25 01:03:00,26.0,25.0,-100.00,North,0,12.0,29.0,96,0.00,,,0.00,0.000000,,2013-03-25 05:03:00,
2013-03-25 01:33:00,26.0,24.0,-100.00,North,0,10.0,31.0,91,0.00,,,0.00,0.000000,,2013-03-25 05:33:00,
2013-03-25 01:42:00,26.0,24.0,-100.00,North,0,10.0,31.0,91,0.00,,,0.00,0.000000,,2013-03-25 05:42:00,
2013-03-25 01:53:00,26.0,24.0,-100.00,North,0,10.0,31.0,91,0.00,,,0.00,0.000000,,2013-03-25 05:53:00,
2013-03-25 02:02:00,26.0,24.0,-100.00,North,0,10.0,31.0,91,0.00,,,0.00,0.000000,,2013-03-25 06:02:00,
2013-03-25 02:33:00,25.0,24.0,-100.00,North,0,11.0,26.0,95,0.00,,,0.00,0.000000,,2013-03-25 06:33:00,
2013-03-25 02:42:00,25.0,24.0,-100.00,North,0,11.0,26.0,95,0.00,,,0.00,0.000000,,2013-03-25 06:42:00,
2013-03-25 02:53:00,25.0,24.0,-100.00,North,0,11.0,26.0,95,0.00,,,0.00,0.000000,,2013-03-25 06:53:00,
2013-03-25 03:02:00,25.0,24.0,-100.00,North,0,11.0,26.0,95,0.00,,,0.00,0.000000,,2013-03-25 07:02:00,
2013-03-25 03:32:00,25.0,25.0,-100.00,North,0,10.0,21.0,100,0.00,,,0.00,0.000000,,2013-03-25 07:32:00,
2013-03-25 03:42:00,25.0,25.0,-100.00,North,0,10.0,21.0,100,0.00,,,0.00,0.000000,,2013-03-25 07:42:00,
2013-03-25 03:53:00,25.0,25.0,-100.00,North,0,10.0,21.0,100,0.00,,,0.00,0.000000,,2013-03-25 07:53:00,
2013-03-25 04:03:00,25.0,25.0,-100.00,North,0,10.0,21.0,100,0.00,,,0.00,0.000000,,2013-03-25 08:03:00,
2013-03-25 04:32:00,25.0,25.0,-100.00,North,0,10.0,24.0,99,0.00,,,0.00,0.000000,,2013-03-25 08:32:00,
2013-03-25 04:43:00,25.0,25.0,-100.00,North,0,10.0,24.0,99,0.00,,,0.00,0.000000,,2013-03-25 08:43:00,
2013-03-25 04:52:00,25.0,25.0,-100.00,North,0,10.0,24.0,99,0.00,,,0.00,0.000000,,2013-03-25 08:52:00,
2013-03-25 05:02:00,25.0,25.0,-100.00,North,0,10.0,24.0,99,0.00,,,0.00,0.000000,,2013-03-25 09:02:00,
2013-03-25 05:33:00,25.0,25.0,-100.00,North,0,9.0,21.0,100,0.00,,,0.00,0.000000,,2013-03-25 09:33:00,
2013-03-25 05:43:00,25.0,25.0,-100.00,North,0,9.0,21.0,100,0.00,,,0.00,0.000000,,2013-03-25 09:43:00,
2013-03-25 05:53:00,25.0,25.0,-100.00,North,0,9.0,21.0,100,0.00,,,0.00,0.000000,,2013-03-25 09:53:00,
2013-03-25 06:03:00,25.0,25.0,-100.00,North,0,9.0,21.0,100,0.00,,,0.00,0.000000,,2013-03-25 10:03:00,
2013-03-25 06:33:00,24.0,24.0,-100.00,North,0,8.0,21.0,99,0.00,,,0.00,0.000000,,2013-03-25 10:33:00,
2013-03-25 06:43:00,24.0,24.0,-100.00,North,0,8.0,21.0,99,0.00,,,0.00,0.000000,,2013-03-25 10:43:00,
2013-03-25 06:54:00,24.0,24.0,-100.00,North,0,8.0,21.0,99,0.00,,,0.00,0.000000,,2013-03-25 10:54:00,
2013-03-25 07:03:00,24.0,24.0,-100.00,North,0,8.0,21.0,99,0.00,,,0.00,0.000000,,2013-03-25 11:03:00,
2013-03-25 07:33:00,24.0,24.0,-100.00,North,0,9.0,20.0,99,0.00,,,0.00,0.000000,,2013-03-25 11:33:00,
2013-03-25 07:43:00,24.0,24.0,-100.00,North,0,9.0,20.0,99,0.00,,,0.00,0.000000,,2013-03-25 11:43:00,
2013-03-25 07:53:00,24.0,24.0,-100.00,North,0,9.0,20.0,99,0.00,,,0.00,0.000000,,2013-03-25 11:53:00,
2013-03-25 08:03:00,24.0,24.0,-100.00,North,0,9.0,20.0,99,0.00,,,0.00,0.000000,,2013-03-25 12:03:00,
2013-03-25 08:33:00,25.0,25.0,-100.00,North,0,7.0,15.0,99,0.00,,,0.00,11.000000,,2013-03-25 12:33:00,
2013-03-25 08:43:00,25.0,25.0,-100.00,North,0,7.0,15.0,99,0.00,,,0.00,11.000000,,2013-03-25 12:43:00,
2013-03-25 08:54:00,25.0,25.0,-100.00,North,0,7.0,15.0,99,0.00,,,0.00,11.000000,,2013-03-25 12:54:00,
2013-03-25 09:03:00,25.0,25.0,-100.00,North,0,7.0,15.0,99,0.00,,,0.00,11.000000,,2013-03-25 13:03:00,
2013-03-25 09:32:00,26.0,26.0,-100.00,North,0,7.0,14.0,98,0.00,,,0.00,63.000000,,2013-03-25 13:32:00,
2013-03-25 09:43:00,26.0,26.0,-100.00,North,0,7.0,14.0,98,0.00,,,0.00,63.000000,,2013-03-25 13:43:00,
2013-03-25 09:53:00,26.0,26.0,-100.00,North,0,7.0,14.0,98,0.00,,,0.00,63.000000,,2013-03-25 13:53:00,
2013-03-25 10:03:00,26.0,26.0,-100.00,North,0,7.0,14.0,98,0.00,,,0.00,63.000000,,2013-03-25 14:03:00,
2013-03-25 10:33:00,26.0,26.0,-100.00,North,0,5.0,14.0,98,0.00,,,0.00,105.000000,,2013-03-25 14:33:00,
2013-03-25 10:43:00,26.0,26.0,-100.00,North,0,5.0,14.0,98,0.00,,,0.00,105.000000,,2013-03-25 14:43:00,
2013-03-25 10:53:00,26.0,26.0,-100.00,North,0,5.0,14.0,98,0.00,,,0.00,105.000000,,2013-03-25 14:53:00,
2013-03-25 11:03:00,26.0,26.0,-100.00,North,0,5.0,14.0,98,0.00,,,0.00,105.000000,,2013-03-25 15:03:00,
2013-03-25 11:33:00,28.0,27.0,-100.00,North,0,6.0,12.0,96,0.00,,,0.00,191.000000,,2013-03-25 15:33:00,
2013-03-25 11:43:00,28.0,27.0,-100.00,North,0,6.0,12.0,96,0.00,,,0.00,191.000000,,2013-03-25 15:43:00,
2013-03-25 11:54:00,28.0,27.0,-100.00,North,0,6.0,12.0,96,0.00,,,0.00,191.000000,,2013-03-25 15:54:00,
2013-03-25 12:03:00,28.0,27.0,-100.00,North,0,6.0,12.0,96,0.00,,,0.00,191.000000,,2013-03-25 16:03:00,
2013-03-25 12:33:00,30.0,29.0,-100.00,North,0,4.0,11.0,95,0.00,,,0.00,226.000000,,2013-03-25 16:33:00,
2013-03-25 12:44:00,30.0,29.0,-100.00,North,0,4.0,11.0,95,0.00,,,0.00,226.000000,,2013-03-25 16:44:00,
2013-03-25 12:53:00,30.0,29.0,-100.00,North,0,4.0,11.0,95,0.00,,,0.00,226.000000,,2013-03-25 16:53:00,
2013-03-25 13:03:00,30.0,29.0,-100.00,North,0,4.0,11.0,95,0.00,,,0.00,226.000000,,2013-03-25 17:03:00,
2013-03-25 13:33:00,31.0,30.0,-100.00,North,0,3.0,9.0,95,0.02,,,0.02,200.000000,,2013-03-25 17:33:00,
2013-03-25 13:43:00,31.0,30.0,-100.00,North,0,3.0,9.0,95,0.02,,,0.02,200.000000,,2013-03-25 17:43:00,
2013-03-25 13:53:00,31.0,30.0,-100.00,North,0,3.0,9.0,95,0.02,,,0.02,200.000000,,2013-03-25 17:53:00,
2013-03-25 14:04:00,31.0,30.0,-100.00,North,0,3.0,9.0,95,0.02,,,0.02,200.000000,,2013-03-25 18:04:00,
2013-03-25 14:33:00,32.0,31.0,-100.00,North,0,7.0,14.0,95,0.04,,,0.06,242.000000,,2013-03-25 18:33:00,
2013-03-25 14:43:00,32.0,31.0,-100.00,North,0,7.0,14.0,95,0.04,,,0.06,242.000000,,2013-03-25 18:43:00,
2013-03-25 14:53:00,32.0,31.0,-100.00,North,0,7.0,14.0,95,0.04,,,0.06,242.000000,,2013-03-25 18:53:00,
2013-03-25 15:03:00,32.0,31.0,-100.00,North,0,7.0,14.0,95,0.04,,,0.06,242.000000,,2013-03-25 19:03:00,
2013-03-25 15:33:00,31.0,29.0,-100.00,North,0,7.0,15.0,93,0.10,,,0.16,297.000000,,2013-03-25 19:33:00,
2013-03-25 15:43:00,31.0,29.0,-100.00,North,0,7.0,15.0,93,0.10,,,0.16,297.000000,,2013-03-25 19:43:00,
2013-03-25 15:53:00,31.0,29.0,-100.00,North,0,7.0,15.0,93,0.10,,,0.16,297.000000,,2013-03-25 19:53:00,
2013-03-25 16:02:00,31.0,29.0,-100.00,North,0,7.0,15.0,93,0.10,,,0.16,297.000000,,2013-03-25 20:02:00,
2013-03-25 16:32:00,30.0,29.0,-100.00,North,0,7.0,14.0,95,0.03,,,0.19,221.000000,,2013-03-25 20:32:00,
2013-03-25 16:42:00,30.0,29.0,-100.00,North,0,7.0,14.0,95,0.03,,,0.19,221.000000,,2013-03-25 20:42:00,
2013-03-25 16:52:00,30.0,29.0,-100.00,North,0,7.0,14.0,95,0.03,,,0.19,221.000000,,2013-03-25 20:52:00,
2013-03-25 17:03:00,30.0,29.0,-100.00,North,0,7.0,14.0,95,0.03,,,0.19,221.000000,,2013-03-25 21:03:00,
2013-03-25 17:33:00,30.0,29.0,-100.00,North,0,6.0,16.0,98,0.01,,,0.20,129.000000,,2013-03-25 21:33:00,
2013-03-25 17:43:00,30.0,29.0,-100.00,North,0,6.0,16.0,98,0.01,,,0.20,129.000000,,2013-03-25 21:43:00,
2013-03-25 17:52:00,30.0,29.0,-100.00,North,0,6.0,16.0,98,0.01,,,0.20,129.000000,,2013-03-25 21:52:00,
2013-03-25 18:03:00,30.0,29.0,-100.00,North,0,6.0,16.0,98,0.01,,,0.20,129.000000,,2013-03-25 22:03:00,
2013-03-25 18:33:00,29.0,29.0,-100.00,North,0,5.0,12.0,100,0.00,,,0.20,69.000000,,2013-03-25 22:33:00,
2013-03-25 18:43:00,29.0,29.0,-100.00,North,0,5.0,12.0,100,0.00,,,0.20,69.000000,,2013-03-25 22:43:00,
2013-03-25 18:52:00,29.0,29.0,-100.00,North,0,5.0,12.0,100,0.00,,,0.20,69.000000,,2013-03-25 22:52:00,
2013-03-25 19:03:00,29.0,29.0,-100.00,North,0,5.0,12.0,100,0.00,,,0.20,69.000000,,2013-03-25 23:03:00,
2013-03-25 19:33:00,29.0,29.0,-100.00,North,0,6.0,11.0,100,0.00,,,0.20,22.000000,,2013-03-25 23:33:00,
2013-03-25 19:43:00,29.0,29.0,-100.00,North,0,6.0,11.0,100,0.00,,,0.20,22.000000,,2013-03-25 23:43:00,
2013-03-25 19:53:00,29.0,29.0,-100.00,North,0,6.0,11.0,100,0.00,,,0.20,22.000000,,2013-03-25 23:53:00,
2013-03-25 20:02:00,29.0,29.0,-100.00,North,0,6.0,11.0,100,0.00,,,0.20,22.000000,,2013-03-26 00:02:00,
2013-03-25 21:33:00,28.0,28.0,-100.00,North,0,6.0,13.0,100,-99.99,,,0.20,0.000000,,2013-03-26 01:33:00,
2013-03-25 21:42:00,28.0,28.0,-100.00,North,0,6.0,13.0,100,-99.99,,,0.20,0.000000,,2013-03-26 01:42:00,
2013-03-25 21:53:00,28.0,28.0,-100.00,North,0,6.0,13.0,100,-99.99,,,0.20,0.000000,,2013-03-26 01:53:00,
2013-03-25 22:02:00,28.0,28.0,-100.00,North,0,6.0,13.0,100,-99.99,,,0.20,0.000000,,2013-03-26 02:02:00,
2013-03-25 22:32:00,28.0,28.0,-100.00,North,0,6.0,14.0,100,0.00,,,0.20,0.000000,,2013-03-26 02:32:00,
2013-03-25 22:43:00,28.0,28.0,-100.00,North,0,6.0,14.0,100,0.00,,,0.20,0.000000,,2013-03-26 02:43:00,
2013-03-25 22:52:00,28.0,28.0,-100.00,North,0,6.0,14.0,100,0.00,,,0.20,0.000000,,2013-03-26 02:52:00,
2013-03-25 23:02:00,28.0,28.0,-100.00,North,0,6.0,14.0,100,0.00,,,0.20,0.000000,,2013-03-26 03:02:00,
2013-03-25 23:34:00,27.0,27.0,-100.00,North,0,6.0,17.0,100,0.00,,,0.20,0.000000,,2013-03-26 03:34:00,
2013-03-25 23:43:00,27.0,27.0,-100.00,North,0,6.0,17.0,100,0.00,,,0.20,0.000000,,2013-03-26 03:43:00,
2013-03-25 23:53:00,27.0,27.0,-100.00,North,0,6.0,17.0,100,0.00,,,0.20,0.000000,,2013-03-26 03:53:00,